Ban Ang Hin, Thailand

5:11 AM ICT on December 06, 2016 (GMT +0700)
Hua Hin Aero

Weather History for VTPH - February, 2014

Change the Weather History Date:

Wednesday, February 5, 2014

  Actual Average Record
Temperature  
Mean Temperature 80 °F -  
Max Temperature 86 °F - - ()
Min Temperature 74 °F - - ()
Cooling Degree Days 15    
Growing Degree Days 30 (Base 50)    
Moisture  
Dew Point 74 °F    
Average Humidity 78    
Maximum Humidity 94    
Minimum Humidity 58    
Precipitation  
Precipitation 0.00 in - - ()
Sea Level Pressure  
Sea Level Pressure 29.75 in    
Wind  
Wind Speed 7 mph ()    
Max Wind Speed 18 mph    
Max Gust Speed -    
Visibility 5.0 miles    
Events      
T = Trace of Precipitation, MM = Missing Value Source: Averaged Metar Reports

Daily Weather History Graph

Daily Weather History Graph

Search for Another Location

Airport or City:

Trip Planner

Search our weather history database for the weather conditions in past years. The results will help you decide how hot, cold, wet, or windy it might be!

Date:

Astronomy

Feb. 05, 2014 Rise Set
Actual Time 6:45 AM ICT 6:23 PM ICT
Civil Twilight 6:23 AM ICT 6:45 PM ICT
Nautical Twilight 5:57 AM ICT 7:10 PM ICT
Astronomical Twilight 5:32 AM ICT 7:35 PM ICT
Moon 10:48 AM ICT 11:33 PM ICT
Length of Visible Light 12h 21m
Length of Day
11h 37m
Waxing Crescent, 34% of the Moon is Illuminated
Feb 5
Waxing Crescent
Feb 7
First Quarter
Feb 15
Full
Feb 23
Last Quarter
Mar 1
New

Hourly Weather History & Observations

Time (ICT) Temp. Heat Index Dew Point Humidity Pressure Visibility Wind Dir Wind Speed Gust Speed Precip Events Conditions
1:00 AM 78 °F - 75 °F 87% 29.75 in 5 mi SSW 3.5 mph - -   Mist
4:00 AM 76 °F - 75 °F 94% 29.73 in 5 mi SSW 4.6 mph - -   Mist
7:00 AM 75 °F - 72 °F 88% 29.76 in 3 mi SSW 5.8 mph - -   Mist
7:00 AM 75.2 °F - 71.6 °F 89% 29.74 in 3.1 mi Variable 2.3 mph - N/A   Mist
8:00 AM 77.0 °F - 71.6 °F 83% 29.77 in 3.1 mi Variable 2.3 mph - N/A   Mist
9:00 AM 78.8 °F - 71.6 °F 78% 29.80 in 5.6 mi Variable 4.6 mph - N/A   Unknown
10:00 AM 84 °F - 71 °F 58% 29.81 in 6 mi SSW 5.8 mph - -   Clear
10:00 AM 82.4 °F 87.2 °F 71.6 °F 70% 29.80 in - SW 5.8 mph - N/A   Clear
11:00 AM 84.2 °F 92.3 °F 75.2 °F 74% 29.80 in - SE 10.4 mph - N/A   Clear
12:00 PM 84.2 °F 92.3 °F 75.2 °F 74% 29.77 in - SE 13.8 mph - N/A   Clear
1:00 PM 86 °F - 73 °F 58% 29.76 in 6 mi SE 5.8 mph - -   Clear
1:00 PM 84.2 °F 92.3 °F 75.2 °F 74% 29.74 in - SSE 16.1 mph - N/A   Clear
2:00 PM 84.2 °F 92.3 °F 75.2 °F 74% 29.74 in - SSE 18.4 mph - N/A   Clear
3:00 PM 84.2 °F 92.3 °F 75.2 °F 74% 29.68 in - SSE 17.3 mph - N/A   Clear
4:00 PM 83 °F - 74 °F 69% 29.70 in 6 mi SE 6.9 mph - -   Clear
4:00 PM 82.4 °F 89.5 °F 75.2 °F 79% 29.68 in - SSE 17.3 mph - N/A   Clear
5:00 PM 80.6 °F 86.2 °F 75.2 °F 84% 29.68 in 5.6 mi SSE 13.8 mph - N/A   Unknown
6:00 PM 80.6 °F 86.2 °F 75.2 °F 84% 29.71 in - SSE 10.4 mph - N/A   Clear
7:00 PM 80 °F - 74 °F 79% 29.74 in 6 mi SE 5.8 mph - -   Clear
7:00 PM 78.8 °F - 75.2 °F 89% 29.71 in - South 10.4 mph - N/A   Clear
10:00 PM 78 °F - 74 °F 84% 29.78 in 6 mi South 4.6 mph - -